Weather Roundup
Issued by NWS Chicago, IL

Home | Current Version | Previous Version | Graphics & Text | Print | Product List | Glossary On
Versions: 1 2 3 4 5 6 7 8 9 10 11 12 13 14 15 16 17 18 19 20 21 22 23 24 25 26 27 28 29 30 31 32 33 34 35 36 37 38 39 40 41 42 43 44 45 46 47 48 49 50
000
NZUS59 KLOT 060808
HRRLOT

CHICAGO AREA WEATHER ROUNDUP
NATIONAL WEATHER SERVICE CHICAGO/ROMEOVILLE IL
300 AM CDT FRI MAY 06 2016

NOTE: "FAIR" INDICATES FEW OR NO CLOUDS BELOW 12,000 FEET WITH NO
SIGNIFICANT WEATHER AND/OR OBSTRUCTIONS TO VISIBILITY.

* THESE STATIONS ARE NOT UNDER NWS QUALITY CONTROL. THEY ALSO MAY NOT
  REPORT WEATHER SUCH AS PRECIPITATION OR FOG.

ILZ005-006-012>014-019>023-060900-
NORTHEAST ILLINOIS

CITY           SKY/WX    TMP DP  RH WIND       PRES   REMARKS
OHARE          PTCLDY    44  39  82 SW3       29.96F
MIDWAY         PTCLDY    48  38  68 CALM      29.97F
AURORA         CLEAR     43  40  89 CALM      29.97F
LANSING*       CLEAR     39  39  97 CALM      29.98F FOG
JOLIET*          N/A     42  42  98 CALM      29.98S FOG
WAUKEGAN       CLEAR     46  38  73 SW5       29.95F
DUPAGE AIRPORT CLEAR     43  39  86 CALM      29.96F
WHEELING       CLEAR     40  36  86 SE3       29.97F
KANKAKEE*      CLEAR     42  40  92 CALM      29.99F
MORRIS*        CLEAR     46  42  86 CALM      29.97F
LEWIS AIRPORT* CLEAR     44  39  84 CALM      29.98F
$$

WIZ051-052-058>065-066-070>072-060900-
SOUTHEAST WISCONSIN

CITY           SKY/WX    TMP DP  RH WIND       PRES   REMARKS
MILWAUKEE      CLOUDY    49  38  65 SW3       29.95S
KENOSHA*       CLOUDY    42  37  82 SW5       29.95F
RACINE*        CLOUDY    45  37  73 SW5       29.96F
BURLINGTON     PTCLDY    42  41  94 CALM      29.95F
WAUKESHA       CLOUDY    45  39  81 CALM      29.95F
WEST BEND      PTCLDY    45  41  87 CALM      29.93F
$$

INZ001>003-010>013-019-020-060900-
NORTHWEST INDIANA

CITY           SKY/WX    TMP DP  RH WIND       PRES   REMARKS
GARY*          CLEAR     40  40 100 CALM      29.98S FOG
MICHIGAN CITY* NOT AVBL
RENSSELAER*    NOT AVBL
VALPARAISO     CLEAR     40  38  93 W3        29.98S
$$

LMZ740>746-060900-
SOUTHERN LAKE MICHIGAN

STATION/POSITION TIME  SKY/WX   TEMP WIND        PRES    VSBY
                                AIR  DIR/SP/G
                 (UTC)          (F)  (DEG/KT/KT) (MB)    (MI)
HARRISON CRIB    0700            51  210/  4/  4   N/A
BURNHAM HARBOR   0800            50  240/  5       N/A
CALUMET HARBOR   0700            46  220/  3/  4 1014.7F
BURNS HARBOR     0700            45  220/  1/  4 1015.9S
MICHIGAN CITY    0700            43  190/  3/  4   N/A
$$

ABBREVIATIONS USED IN REMARKS
   TC - TEMPERATURE IN CELSIUS
  WCI - WIND CHILL INDEX
   HX - HEAT INDEX
  VSB - VISIBILITY
$$



USA.gov is the U.S. government's official web portal to all federal, state and local government web resources and services.